Minot Air Force Base, ND

3:43 AM CDT on August 24, 2016 (GMT -0500)
Minot Air Force Base

Weather History for KMIB - October, 2012

Change the Weather History Date:

Friday, October 5, 2012

  Actual Average Record
Temperature  
Mean Temperature 30 °F -  
Max Temperature 39 °F 59 °F 86 °F (2011)
Min Temperature 21 °F 34 °F 21 °F (2012)
Degree Days  
Heating Degree Days 35    
Moisture  
Dew Point 20 °F    
Average Humidity 66    
Maximum Humidity 86    
Minimum Humidity 46    
Precipitation  
Precipitation 0.00 in - - ()
Sea Level Pressure  
Sea Level Pressure 30.42 in    
Wind  
Wind Speed 13 mph (NW)    
Max Wind Speed 20 mph    
Max Gust Speed 24 mph    
Visibility 10 miles    
Events Rain    
Averages and records for this station are not official NWS values.
T = Trace of Precipitation, MM = Missing Value Source: NWS Daily Summary

Daily Weather History Graph

Daily Weather History Graph

Search for Another Location

Airport or City:

Trip Planner

Search our weather history database for the weather conditions in past years. The results will help you decide how hot, cold, wet, or windy it might be!

Date:

Astronomy

Oct. 05, 2012 Rise Set
Actual Time 7:51 AM CDT 7:15 PM CDT
Civil Twilight 7:20 AM CDT 7:46 PM CDT
Nautical Twilight 6:43 AM CDT 8:22 PM CDT
Astronomical Twilight 6:07 AM CDT 8:59 PM CDT
Moon 10:17 PM CDT (10/5) 1:23 PM CDT (10/5)
Length of Visible Light 12h 26m
Length of Day
11h 23m
Waning Gibbous, 74% of the Moon is Illuminated
Oct 5
Waning Gibbous
Oct 8
Last Quarter
Oct 15
New
Oct 21
First Quarter
Oct 29
Full

Hourly Weather History & Observations

Time (CDT) Temp. Windchill Dew Point Humidity Pressure Visibility Wind Dir Wind Speed Gust Speed Precip Events Conditions
12:55 AM 22.1 °F 12.8 °F 17.8 °F 83% 30.39 in 10.0 mi WNW 8.1 mph - N/A   Clear
1:55 AM 22.5 °F 11.1 °F 17.8 °F 82% 30.39 in 10.0 mi WNW 11.5 mph - N/A   Clear
2:55 AM 22.8 °F 11.5 °F 18.1 °F 82% 30.40 in 10.0 mi NW 11.5 mph - N/A   Clear
3:55 AM 22.8 °F 10.9 °F 18.1 °F 82% 30.39 in 10.0 mi NW 12.7 mph - N/A   Clear
4:55 AM 22.5 °F 10.5 °F 18.9 °F 86% 30.40 in 10.0 mi WNW 12.7 mph - N/A   Clear
5:55 AM 21.7 °F 10.2 °F 18.0 °F 85% 30.40 in 10.0 mi NW 11.5 mph - N/A   Partly Cloudy
6:06 AM 23.0 °F 11.1 °F 17.6 °F 80% 30.40 in 10.0 mi NW 12.7 mph - N/A   Mostly Cloudy
6:55 AM 26.1 °F 14.0 °F 18.3 °F 73% 30.40 in 10.0 mi NW 15.0 mph - N/A   Overcast
7:55 AM 25.9 °F 13.3 °F 17.6 °F 71% 30.41 in 10.0 mi NW 16.1 mph 24.2 mph N/A   Overcast
8:55 AM 26.8 °F 13.3 °F 17.8 °F 69% 30.42 in 10.0 mi NW 19.6 mph - N/A   Overcast
9:55 AM 28.6 °F 16.0 °F 18.0 °F 64% 30.43 in 10.0 mi NW 18.4 mph - N/A   Overcast
10:55 AM 30.6 °F 19.4 °F 18.5 °F 61% 30.43 in 10.0 mi NW 16.1 mph - N/A   Overcast
11:43 AM 32.0 °F 20.5 °F 19.4 °F 60% 30.44 in 10.0 mi NNW 18.4 mph - N/A   Overcast
11:55 AM 32.5 °F 21.9 °F 19.2 °F 58% 30.44 in 10.0 mi NNW 16.1 mph 21.9 mph N/A   Overcast
12:55 PM 34.5 °F 24.5 °F 19.4 °F 54% 30.44 in 10.0 mi NW 16.1 mph - N/A   Overcast
1:55 PM 37.4 °F 28.2 °F 19.9 °F 49% 30.42 in 10.0 mi NW 16.1 mph 24.2 mph N/A   Scattered Clouds
2:55 PM 39.0 °F 29.9 °F 19.8 °F 46% 30.41 in 10.0 mi NNW 17.3 mph - N/A   Partly Cloudy
3:55 PM 38.3 °F 29.0 °F 20.3 °F 48% 30.41 in 10.0 mi NNW 17.3 mph - N/A   Scattered Clouds
4:55 PM 39.6 °F 31.0 °F 20.3 °F 46% 30.41 in 10.0 mi NNW 16.1 mph 23.0 mph N/A   Clear
5:55 PM 36.5 °F 27.4 °F 20.7 °F 53% 30.43 in 10.0 mi North 15.0 mph 21.9 mph N/A   Clear
6:55 PM 33.6 °F 23.7 °F 25.0 °F 71% 30.45 in 10.0 mi NNW 15.0 mph - 0.00 in Rain Light Rain
7:55 PM 33.8 °F 25.8 °F 23.2 °F 65% 30.45 in 10.0 mi WNW 10.4 mph - 0.00 in   Clear
8:55 PM 34.2 °F 27.5 °F 22.8 °F 63% 30.45 in 10.0 mi NW 8.1 mph - N/A   Clear
9:55 PM 34.5 °F 26.7 °F 21.9 °F 60% 30.45 in 10.0 mi NW 10.4 mph - N/A   Overcast
10:55 PM 33.4 °F 26.6 °F 21.2 °F 61% 30.45 in 10.0 mi NW 8.1 mph - N/A   Mostly Cloudy
11:55 PM 32.7 °F 25.0 °F 20.7 °F 61% 30.45 in 10.0 mi NW 9.2 mph - N/A   Mostly Cloudy